Find Starlink 35520

NORAD ID: 66133 Int'l Des: 2025-237 Owner: SPXS Country: US Constellation: starlink operational
LEOCIRCULAR

Current View

Loading 3D Globe...

About Starlink 35520

Starlink 35520 (NORAD 66133) is a starlink constellation satellite (v2 mini) launched Oct 22, 2025 by SPXS of US. It operates in LEO, CIRCULAR orbit with a mass of 575.00 kg.

Upcoming Passes

Passes for default location (London). Set your location on the main map for personalized predictions.

Altitude History

Loading altitude history...

Two-Line Element Set

1 66133U 25237V 26262.58682794 .00014163 00000-0 42956-3 0 9999
2 66133 53.1579 215.6882 0000572 111.3215 248.7848 15.34396183 52349
Epoch: Sep 19, 2026 • Age: 28 hours

Current Status

Altitude 478.4 km
Apogee / Perigee N/A
Velocity 7.63 km/s
Sub-Earth Point -45.33°S, 107.57°W
Launch Date Oct 22, 2025
Age 0.9 years
Type internet

Technical Details

Classification Payload
Mass 575.00 kg
Dry Mass 530.00 kg
Length 0.30 m
Span 29.00 m
Shape ? Box + pan
Manufacturer SPXS
Bus Type Starlink V2MO
Phase Status In Orbit
Owner/State SPXS/US

Most Searched